Skip Page Navigation
NASA JPL Caltech
NASA Logo - Jet Propulsion Laboratory + View the NASA Portal
+ Center for Near-Earth Object Studies
JPL Home Earth Solar System Stars & Galaxies Technology
JPL Solar System Dynamics
BODIES ORBITS EPHEMERIDES TOOLS PHYSICAL DATA DISCOVERY FAQ SITE MAP
JPL Small-Body Database Browser
Search: [ help ]  
351694 (2006 BK85)
Classification: Main-belt Asteroid          SPK-ID: 2351694
Ephemeris | Orbit Diagram | Orbital Elements | Mission Design | Physical Parameters | Discovery Circumstances ]

[ show orbit diagram ]
Orbital Elements at Epoch 2459000.5 (2020-May-31.0) TDB
Reference: JPL 12 (heliocentric ecliptic J2000)
 Element Value Uncertainty (1-sigma)   Units 
e .2207111072178351 4.2502e-08  
a 2.347276525345129 1.6593e-08 au
q 1.829206524489773 9.6183e-08 au
i 9.885457195523148 5.7057e-06 deg
node 124.4281381651473 2.5382e-05 deg
peri 254.2366530636955 2.9157e-05 deg
M 86.13898004130243 1.2059e-05 deg
tp 2458686.201698258869
(2019-Jul-21.70169826)
4.3595e-05 TDB
period 1313.544559879332
3.60
1.3928e-05
3.813e-08
d
yr
n .2740675961789003 2.906e-09 deg/d
Q 2.865346526200486 2.0255e-08 au
  Orbit Determination Parameters
   # obs. used (total)      238  
   data-arc span      6625 days (18.14 yr)  
   first obs. used      2001-12-11  
   last obs. used      2020-01-31  
   planetary ephem.      DE431  
   SB-pert. ephem.      SB431-N16  
   condition code      0  
   norm. resid. RMS      .55498  
   source      ORB  
   producer      Otto Matic  
   solution date      2020-Feb-25 23:56:48  

Additional Information
 Earth MOID = .859367 au 
 Jupiter MOID = 2.65722 au 
 T_jup = 3.507 
[ show covariance matrix ]

Ephemeris | Orbit Diagram | Orbital Elements | Mission Design | Physical Parameters | Discovery Circumstances ]

Physical Parameter Table
Parameter Symbol Value Units Sigma Reference Notes
absolute magnitude H 17.2   n/a MPO450319  

351694 (2006 BK85)          Discovered 2006-Jan-25 by Spacewatch at Kitt Peak
Reference: 20130127/Numbers.arcLast Updated: 2013-01-31

Alternate Designations
 2006 BK85 = 2008 TA27 
Ephemeris | Orbit Diagram | Orbital Elements | Mission Design | Physical Parameters | Discovery Circumstances ]
ABOUT SSD CREDITS/AWARDS PRIVACY/COPYRIGHT GLOSSARY LINKS
FirstGov 2020-Jul-04 06:53 UT
(server date/time)  
NASA Home Page
Site Manager:   Ryan S. Park
Webmaster  Alan B. Chamberlin